| time (UTC) | temp C | wind direction | speed KPH | gust KPH | rain 1hr cm | rain 24hr cm | rain mn cm | humidity % | barometer mb |
| 20260904003048 | 25 | 152 | 4.8 | 17.7 | 0.00 | 0.00 | 0.00 | 63 | 1011.4 |
| 20260904001547 | 25 | 207 | 6.4 | 11.3 | 0.00 | 0.00 | 0.00 | 63 | 1011.4 |
| 20260904000100 | 25 | 182 | 6.4 | 14.5 | 0.00 | 0.00 | 0.00 | 62 | 1011.6 |
| 20260903234554 | 25 | 205 | 8.0 | 14.5 | 0.00 | 0.00 | 0.00 | 62 | 1011.7 |
| 20260903233049 | 25 | 215 | 6.4 | 19.3 | 0.00 | 0.00 | 0.00 | 63 | 1011.8 |
| 20260903231548 | 26 | 214 | 4.8 | 17.7 | 0.00 | 0.00 | 0.00 | 63 | 1011.9 |
| 20260903230057 | 26 | 242 | 4.8 | 19.3 | 0.00 | 0.00 | 0.00 | 62 | 1012.1 |
| 20260903224552 | 26 | 175 | 6.4 | 17.7 | 0.00 | 0.00 | 0.00 | 64 | 1012.2 |
| 20260903223049 | 26 | 189 | 8.0 | 16.1 | 0.00 | 0.00 | 0.00 | 63 | 1012.4 |
| 20260903221545 | 25 | 232 | 6.4 | 16.1 | 0.00 | 0.00 | 0.00 | 64 | 1012.7 |
| 20260903220104 | 25 | 192 | 9.7 | 17.7 | 0.00 | 0.00 | 0.00 | 63 | 1012.8 |
| 20260903214553 | 26 | 235 | 6.4 | 17.7 | 0.00 | 0.00 | 0.00 | 63 | 1012.9 |
| 20260903213056 | 26 | 223 | 8.0 | 17.7 | 0.00 | 0.00 | 0.00 | 62 | 1012.9 |
| 20260903211552 | 26 | 200 | 4.8 | 22.5 | 0.00 | 0.00 | 0.00 | 63 | 1012.8 |
| 20260903210052 | 26 | 211 | 6.4 | 16.1 | 0.00 | 0.00 | 0.00 | 62 | 1012.9 |
| 20260903204552 | 26 | 161 | 6.4 | 22.5 | 0.00 | 0.00 | 0.00 | 62 | 1013.1 |
| 20260903203109 | 26 | 246 | 6.4 | 16.1 | 0.00 | 0.00 | 0.00 | 62 | 1013.2 |
| 20260903201546 | 26 | 244 | 6.4 | 16.1 | 0.00 | 0.00 | 0.00 | 61 | 1013.3 |
| 20260903200050 | 26 | 178 | 6.4 | 14.5 | 0.00 | 0.00 | 0.00 | 61 | 1013.3 |
| 20260903194554 | 26 | 206 | 8.0 | 17.7 | 0.00 | 0.00 | 0.00 | 61 | 1013.4 |
| 20260903193046 | 26 | 236 | 6.4 | 12.9 | 0.00 | 0.00 | 0.00 | 61 | 1013.7 |
| 20260903191554 | 26 | 146 | 6.4 | 16.1 | 0.00 | 0.00 | 0.00 | 61 | 1013.9 |
| 20260903190047 | 26 | 172 | 4.8 | 11.3 | 0.00 | 0.00 | 0.00 | 60 | 1014.0 |
| 20260903184546 | 25 | 0 | 1.6 | 9.7 | 0.00 | 0.00 | 0.00 | 60 | 1014.2 |
| 20260903183046 | 25 | 194 | 3.2 | 11.3 | 0.00 | 0.00 | 0.00 | 60 | 1014.3 |
| 20260903181550 | 25 | 196 | 3.2 | 11.3 | 0.00 | 0.00 | 0.00 | 62 | 1014.4 |
| 20260903180054 | 25 | 167 | 6.4 | 12.9 | 0.00 | 0.00 | 0.00 | 61 | 1014.4 |
| 20260903174547 | 25 | 137 | 4.8 | 14.5 | 0.00 | 0.00 | 0.00 | 63 | 1014.4 |
| 20260903173055 | 24 | 202 | 6.4 | 11.3 | 0.00 | 0.00 | 0.00 | 65 | 1014.6 |
| 20260903171601 | 24 | 160 | 4.8 | 12.9 | 0.00 | 0.00 | 0.00 | 65 | 1014.6 |
| 20260903170046 | 23 | 104 | 3.2 | 11.3 | 0.00 | 0.00 | 0.00 | 66 | 1014.7 |
| 20260903164602 | 23 | 186 | 4.8 | 9.7 | 0.00 | 0.00 | 0.00 | 68 | 1014.6 |
| 20260903163101 | 22 | 0 | 3.2 | 9.7 | 0.00 | 0.00 | 0.00 | 71 | 1014.5 |
| 20260903161549 | 21 | 199 | 0.0 | 6.4 | 0.00 | 0.00 | 0.00 | 75 | 1014.6 |
| 20260903160051 | 21 | 0 | 1.6 | 6.4 | 0.00 | 0.00 | 0.00 | 77 | 1014.6 |
| 20260903154550 | 20 | 117 | 0.0 | 4.8 | 0.00 | 0.00 | 0.00 | 79 | 1014.7 |
| 20260903153054 | 20 | 0 | 0.0 | 3.2 | 0.00 | 0.00 | 0.00 | 80 | 1014.6 |
| 20260903151549 | 18 | 139 | 1.6 | 4.8 | 0.00 | 0.00 | 0.00 | 82 | 1014.6 |
| 20260903150047 | 18 | 0 | 0.0 | 4.8 | 0.00 | 0.00 | 0.00 | 83 | 1014.7 |
| 20260903144552 | 17 | 131 | 0.0 | 3.2 | 0.00 | 0.00 | 0.00 | 85 | 1014.6 |
| 20260903143049 | 17 | 0 | 0.0 | 3.2 | 0.00 | 0.00 | 0.00 | 85 | 1014.4 |
| 20260903141555 | 17 | 0 | 0.0 | 0.0 | 0.00 | 0.00 | 0.00 | 85 | 1014.0 |
| 20260903140051 | 16 | 0 | 0.0 | 1.6 | 0.00 | 0.00 | 0.00 | 85 | 1013.9 |
| 20260903134545 | 16 | 0 | 0.0 | 0.0 | 0.00 | 0.00 | 0.00 | 85 | 1013.8 |
| 20260903133055 | 16 | 0 | 0.0 | 1.6 | 0.00 | 0.00 | 0.00 | 85 | 1013.9 |
| 20260903131553 | 16 | 0 | 0.0 | 1.6 | 0.00 | 0.00 | 0.00 | 85 | 1013.8 |
| 20260903130051 | 16 | 0 | 0.0 | 3.2 | 0.00 | 0.00 | 0.00 | 85 | 1013.8 |
| 20260903124553 | 17 | 0 | 0.0 | 1.6 | 0.00 | 0.00 | 0.00 | 85 | 1013.8 |
| 20260903123045 | 17 | 0 | 0.0 | 0.0 | 0.00 | 0.00 | 0.00 | 84 | 1013.7 |
| 20260903121549 | 17 | 0 | 0.0 | 0.0 | 0.00 | 0.00 | 0.00 | 85 | 1013.7 |
| 20260903120057 | 17 | 0 | 0.0 | 0.0 | 0.00 | 0.00 | 0.00 | 84 | 1013.7 |
| 20260903114547 | 17 | 0 | 0.0 | 1.6 | 0.00 | 0.00 | 0.00 | 84 | 1013.8 |
| 20260903113131 | 17 | 0 | 0.0 | 1.6 | 0.00 | 0.00 | 0.00 | 84 | 1013.9 |
| 20260903111549 | 17 | 0 | 0.0 | 3.2 | 0.00 | 0.00 | 0.00 | 84 | 1014.0 |
| 20260903110051 | 17 | 0 | 0.0 | 3.2 | 0.00 | 0.00 | 0.00 | 84 | 1013.9 |
| 20260903104608 | 17 | 0 | 0.0 | 1.6 | 0.00 | 0.00 | 0.00 | 83 | 1014.0 |
| 20260903103052 | 17 | 0 | 0.0 | 0.0 | 0.00 | 0.00 | 0.00 | 83 | 1014.1 |
| 20260903101556 | 17 | 0 | 0.0 | 0.0 | 0.00 | 0.00 | 0.00 | 83 | 1014.2 |
| 20260903100047 | 17 | 0 | 0.0 | 0.0 | 0.00 | 0.00 | 0.00 | 82 | 1014.2 |
| 20260903094552 | 17 | 0 | 0.0 | 0.0 | 0.00 | 0.00 | 0.00 | 82 | 1014.3 |
| 20260903093051 | 17 | 0 | 0.0 | 0.0 | 0.00 | 0.00 | 0.00 | 82 | 1014.3 |
| 20260903091551 | 17 | 0 | 0.0 | 0.0 | 0.00 | 0.00 | 0.00 | 81 | 1014.5 |
| 20260903090050 | 17 | 0 | 0.0 | 0.0 | 0.00 | 0.00 | 0.00 | 80 | 1014.7 |
| 20260903084548 | 18 | 0 | 0.0 | 0.0 | 0.00 | 0.00 | 0.00 | 80 | 1014.8 |
| 20260903083057 | 18 | 0 | 0.0 | 0.0 | 0.00 | 0.00 | 0.00 | 80 | 1014.9 |
| 20260903081549 | 18 | 0 | 0.0 | 0.0 | 0.00 | 0.00 | 0.00 | 79 | 1014.9 |
| 20260903080049 | 18 | 0 | 0.0 | 0.0 | 0.00 | 0.00 | 0.00 | 79 | 1015.1 |
| 20260903074545 | 18 | 0 | 0.0 | 0.0 | 0.00 | 0.00 | 0.00 | 78 | 1015.2 |
| 20260903073046 | 18 | 0 | 0.0 | 0.0 | 0.00 | 0.00 | 0.00 | 77 | 1015.0 |
| 20260903071559 | 18 | 0 | 0.0 | 0.0 | 0.00 | 0.00 | 0.00 | 76 | 1014.9 |
| 20260903070047 | 19 | 0 | 0.0 | 0.0 | 0.00 | 0.00 | 0.00 | 75 | 1015.0 |
| 20260903064600 | 19 | 0 | 0.0 | 1.6 | 0.00 | 0.00 | 0.00 | 74 | 1015.0 |
| 20260903063053 | 20 | 0 | 0.0 | 0.0 | 0.00 | 0.00 | 0.00 | 73 | 1014.9 |
| 20260903061550 | 20 | 0 | 0.0 | 1.6 | 0.00 | 0.00 | 0.00 | 73 | 1014.7 |
| 20260903060104 | 20 | 131 | 0.0 | 3.2 | 0.00 | 0.00 | 0.00 | 72 | 1014.7 |
| 20260903054556 | 20 | 203 | 1.6 | 8.0 | 0.00 | 0.00 | 0.00 | 72 | 1014.6 |
| 20260903053053 | 20 | 177 | 3.2 | 6.4 | 0.00 | 0.00 | 0.00 | 71 | 1014.7 |
| 20260903051607 | 20 | 0 | 0.0 | 4.8 | 0.00 | 0.00 | 0.00 | 70 | 1014.9 |
| 20260903050055 | 20 | 0 | 0.0 | 3.2 | 0.00 | 0.00 | 0.00 | 70 | 1014.7 |
| 20260903044545 | 20 | 0 | 0.0 | 4.8 | 0.00 | 0.00 | 0.00 | 70 | 1014.7 |
| 20260903043145 | 20 | 0 | 0.0 | 3.2 | 0.00 | 0.00 | 0.00 | 69 | 1014.7 |
| 20260903041549 | 20 | 0 | 0.0 | 3.2 | 0.00 | 0.00 | 0.00 | 69 | 1014.6 |
| 20260903040047 | 21 | 0 | 0.0 | 1.6 | 0.00 | 0.00 | 0.00 | 69 | 1014.6 |
| 20260903034554 | 21 | 294 | 0.0 | 6.4 | 0.00 | 0.00 | 0.00 | 68 | 1014.3 |
| 20260903033051 | 21 | 323 | 0.0 | 6.4 | 0.00 | 0.00 | 0.00 | 68 | 1014.2 |
| 20260903031546 | 21 | 314 | 1.6 | 6.4 | 0.00 | 0.00 | 0.00 | 68 | 1014.1 |
| 20260903030046 | 21 | 0 | 0.0 | 6.4 | 0.00 | 0.00 | 0.00 | 67 | 1014.2 |
| 20260903024551 | 21 | 0 | 1.6 | 6.4 | 0.00 | 0.00 | 0.00 | 67 | 1014.1 |
| 20260903023049 | 22 | 0 | 0.0 | 4.8 | 0.00 | 0.00 | 0.00 | 66 | 1014.1 |
| 20260903021546 | 22 | 344 | 1.6 | 6.4 | 0.00 | 0.00 | 0.00 | 65 | 1014.1 |
| 20260903020045 | 22 | 288 | 0.0 | 6.4 | 0.00 | 0.00 | 0.00 | 64 | 1014.0 |
| 20260903014553 | 23 | 291 | 1.6 | 6.4 | 0.00 | 0.00 | 0.00 | 64 | 1013.9 |
| 20260903013107 | 23 | 307 | 1.6 | 8.0 | 0.00 | 0.00 | 0.00 | 64 | 1013.9 |
| 20260903011558 | 24 | 298 | 3.2 | 8.0 | 0.00 | 0.00 | 0.00 | 64 | 1013.9 |
| 20260903010056 | 24 | 311 | 3.2 | 9.7 | 0.00 | 0.00 | 0.00 | 62 | 1013.9 |
| 20260903004551 | 25 | 295 | 3.2 | 12.9 | 0.00 | 0.00 | 0.00 | 59 | 1013.9 |